User: anonymous   Login
Location: Unspecified
(0.0000°N, 0.0000°E)
Time: 20:48:59
(UTC+02:00)
Language:

Cosmos 494 Rocket - Orbit

View from above orbital plane
View from above orbital plane
View from above satellite
View from above satellite

Ground track
Ground track

The orbit data is extracted from the following two-line orbital elements,

1  6061U 72043B   15245.60121229 +.00000074 +00000-0 +31483-4 0  9993
2  6061 074.0575 307.1741 0021060 243.7890 116.1100 14.40391272263956
Epoch (UTC): 02 September 2015 14:25:44
Eccentricity: 0.0021060
inclination: 74.0575°
perigee height: 742 km
apogee height: 772 km
right ascension of ascending node: 307.1741°
argument of perigee: 243.7890°
revolutions per day: 14.40391272
mean anomaly at epoch: 116.1100°
orbit number at epoch: 26395

The dashed part of the orbit path shows where the satellite is in the earth's shadow,  

DLR